EW8749 Weather Reports


Display with metric or nautical units.
time (UTC)temp
F
wind
direction
speed
MPH
gust
MPH
rain 1hr
in
rain 24hr
in
rain mn
in
humidity
%
barometer
mb
20260503071524 63 238 1.0 0.0 0.00 0.00 0.02 79 1017.1
20260503054506 66 194 0.0 0.0 0.00 0.02 0.02 73 1017.4
20260503053009 66 194 0.0 1.0 0.00 0.02 0.02 71 1017.5
20260503051507 67 220 0.0 1.0 0.00 0.02 0.02 68 1017.5
20260503050003 68 209 0.0 4.0 0.00 0.02 0.02 66 1017.7
20260503044501 67 211 1.0 5.0 0.00 0.02 0.02 69 1017.8
20260503043100 67 282 0.0 3.0 0.00 0.02 0.02 68 1018.0
20260503041559 68 256 3.0 9.0 0.00 0.02 0.02 66 1017.9
20260503034558 67 19 0.0 2.0 0.00 0.02 0.02 70 1018.0
20260503033050 66 312 0.0 3.0 0.00 0.02 0.02 71 1018.4
20260503031547 65 258 0.0 0.0 0.00 0.02 0.02 74 1018.7
20260503030045 65 258 0.0 0.0 0.00 0.02 0.02 74 1019.0
20260503004546 61 107 0.0 3.0 0.00 0.02 0.02 81 1021.2
20260503003048 60 141 0.0 2.0 0.00 0.02 0.02 83 1021.4
20260503001542 59 159 0.0 0.0 0.00 0.02 0.02 85 1021.5
20260503000044 59 99 0.0 0.0 0.00 0.02 0.02 86 1021.7
20260502234549 58 99 0.0 0.0 0.00 0.02 0.02 89 1021.9
20260502233031 57 99 0.0 0.0 0.00 0.02 0.02 90 1021.8
20260502231533 56 99 0.0 0.0 0.00 0.02 0.02 91 1022.1
20260502230028 55 99 0.0 0.0 0.00 0.02 0.02 91 1022.1